Location: Stara Lesna
(49.1528°N, 20.2911°E)
Time: 02:13:33
(UTC+02:00)

MOZ.5/SAFIR/RUBIN 5/SL-8 - Pass Details

Date: 13 July 2020
Orbit: 677 x 706 km, 98.1° (Epoch: 11 August)

Event Time Altitude Azimuth Distance (km) Brightness Sun altitude
Exits shadow 01:45:54 23° 151° (SSE) 1,478 5.1 -17.8°
Maximum altitude 01:48:51 69° 72° (ENE) 756 4.0 -17.6°
Drops below altitude 10° 01:53:37 10° 350° (N) 2,188 7.3 -17.4°
Sets 01:55:54 0° 349° (NNW) 3,112 8.2 -17.3°
